User: anonymous
Location: Unspecified
(0.0000°N, 0.0000°E)
Time: 03:16:52
(UTC+02:00)
Language:

Cosmos 1263 Rocket - Orbit

View from above orbital plane
View from above orbital plane
View from above satellite
View from above satellite

Ground track
Ground track

The orbit data is extracted from the following two-line orbital elements,

1 12389U 81033B   14211.19984396  .00020917  00000-0  30951-3 0   324
2 12389 082.8724 066.1018 0202901 319.9507 179.2648 15.34855866716323
Epoch (UTC): 30 July 2014 04:47:46
Eccentricity: 0.0202901
inclination: 82.8724°
perigee height: 322 km
apogee height: 600 km
right ascension of ascending node: 66.1018°
argument of perigee: 319.9507°
revolutions per day: 15.34855866
mean anomaly at epoch: 179.2648°
orbit number at epoch: 71632

The dashed part of the orbit path shows where the satellite is in the earth's shadow,  

DLR